Location: Gro�sch�nbrunn
(49.5760°N, 11.8868°E)
Time: 12:50:13
(UTC+00:00)

HJ-1C - Pass Details

Date: 18 September 2020
Orbit: 432 x 443 km, 97.1° (Epoch: 24 October)

Event Time Altitude Azimuth Distance (km) Brightness Sun altitude
Rises 18:25:22 0° 178° (S) 2,397 6.9 -11.5°
Reaches altitude 10° 18:27:24 10° 184° (S) 1,535 6.0 -11.8°
Maximum altitude 18:30:36 49° 260° (W) 572 4.3 -12.3°
Drops below altitude 10° 18:33:50 10° 337° (NNW) 1,552 6.7 -12.8°
Sets 18:35:55 0° 343° (NNW) 2,427 7.6 -13.1°
